Location: Beadle
(51.4667°N, 109.0000°W)
Time: 04:22:35
(UTC+00:00)

EO-79 - Visible Passes

Search period start: 29 June 2022 00:00
Search period end: 09 July 2022 00:00
Orbit: 587 x 605 km, 98.0° (Epoch: 28 June)

Date Brightness Start Highest point End Pass type
(mag) Time Alt. Az. Time Alt. Az. Time Alt. Az.
29 Jun ? 08:41:22 10° NNE 08:45:25 44° E 08:48:42 15° SSE visible
30 Jun ? 08:51:13 10° NNE 08:55:23 54° E 08:58:43 15° S visible
01 Jul ? 09:01:05 10° NNE 09:05:18 68° ESE 09:08:43 15° S visible
02 Jul ? 07:37:47 10° ENE 07:38:56 11° E 07:40:04 10° ESE visible
02 Jul ? 09:10:59 10° NNE 09:15:15 85° ESE 09:18:43 15° SSW visible
03 Jul ? 07:46:49 10° ENE 07:48:58 14° E 07:51:08 10° ESE visible
03 Jul ? 09:20:54 10° NNE 09:25:09 78° WNW 09:28:43 14° SSW visible
04 Jul ? 07:56:14 10° NE 07:59:00 17° E 08:01:46 10° SE visible
04 Jul ? 09:30:50 10° N 09:35:02 63° WNW 09:38:43 13° SSW visible
05 Jul ? 08:05:48 10° NE 08:09:00 20° E 08:12:02 11° SE visible
05 Jul ? 09:40:48 10° N 09:44:54 51° WNW 09:48:42 12° SW visible
06 Jul ? 08:15:28 10° NE 08:19:00 25° E 08:22:01 12° SE visible
06 Jul ? 09:50:47 10° N 09:54:46 41° WNW 09:58:41 10° SW visible
07 Jul ? 08:25:11 10° NNE 08:28:58 30° E 08:32:00 14° SSE visible
07 Jul ? 10:00:47 10° N 10:04:37 34° WNW 10:08:27 10° SW visible
08 Jul ? 08:34:57 10° NNE 08:38:56 37° E 08:41:58 16° SSE visible
08 Jul ? 10:10:48 10° N 10:14:27 28° WNW 10:18:05 10° WSW visible
